Regional Weather Roundup
Issued by NWS Sioux Falls, SD

Home | Current Version | Previous Version | Text Only | Print | Product List | Glossary On
Versions: 1 2 3 4 5 6 7 8 9 10 11 12 13 14 15 16 17 18 19 20 21 22 23 24 25 26 27 28 29 30 31 32 33 34 35 36 37 38 39 40 41 42 43 44 45 46 47 48 49 50
000
ASUS43 KFSD 030702
RWRFSD

WEATHER ROUNDUP FOR SE SOUTH DAKOTA/SW MINNESOTA/NW IOWA
NATIONAL WEATHER SERVICE SIOUX FALLS SD
200 AM CDT MON AUG 03 2015

NOTE: "FAIR" INDICATES FEW OR NO CLOUDS BELOW 12,000 FEET WITH NO
SIGNIFICANT WEATHER AND OR OBSTRUCTIONS TO VISIBILITY.


SDZ038>040-050-052>070-030800-
SOUTHEAST SOUTH DAKOTA

CITY           SKY/WX    TMP DP  RH WIND       PRES   REMARKS
BROOKINGS      CLEAR     57  54  88 NW3       29.98R
CHAMBERLAIN    CLEAR     61  57  88 CALM      29.97S
HURON          CLEAR     62  58  86 CALM      29.95R
MADISON        FAIR      57  57 100 N6        29.97S
MITCHELL       CLEAR     62  58  86 W3        29.95S
SIOUX FALLS    CLEAR     59  57  93 CALM      29.95S
WINNER         FAIR      69  58  67 E5        29.98S
YANKTON        CLEAR     64  57  77 N6        29.93S
$$

MNZ071-072-080-081-089-090-097-098-030800-
SOUTHWEST MINNESOTA

CITY           SKY/WX    TMP DP  RH WIND       PRES   REMARKS
FAIRMONT       CLEAR     61  52  72 NW3       29.92R
JACKSON        CLEAR     59  55  88 NW8       29.95R
LUVERNE        CLEAR     61  55  82 CALM      29.96S
MARSHALL       CLEAR     57  52  82 NW7       29.94F
MONTEVIDEO     CLEAR     57  50  77 W6        29.94R
PIPESTONE      CLEAR     63  57  82 CALM      29.96S
REDWOOD FALLS  CLEAR     60  53  77 NW5       29.91R
TRACY          CLEAR     61  55  82 W3        29.95S
WINDOM         CLEAR     57  54  88 W5        29.94S
WORTHINGTON    CLEAR     59  52  77 NW7       29.96R
$$

IAZ001>003-012>014-020>022-031-032-NEZ013-014-SDZ071-030800-
NORTHWEST IOWA

CITY           SKY/WX    TMP DP  RH WIND       PRES   REMARKS
DENISON        PTCLDY    66  63  88 CALM      29.91R
ESTHERVILLE    CLEAR     58  56  93 NW5       29.94R
SIOUX CITY     NOT AVBL
SPENCER        CLEAR     61  55  81 N7        29.94R
$$

ABBREVIATIONS USED IN REMARKS
   TC - TEMPERATURE IN CELSIUS
  WCI - WIND CHILL INDEX
   HX - HEAT INDEX
  VSB - VISIBILITY



USA.gov is the U.S. government's official web portal to all federal, state and local government web resources and services.